Regional Weather Roundup
Issued by NWS Sterling, VA

Home | Current Version | Previous Version | Graphics & Text | Print | Product List | Glossary On
Versions: 1 2 3 4 5 6 7 8 9 10 11 12 13 14 15 16 17 18 19 20 21 22 23 24 25 26 27
000
ASUS41 KLWX 202211
RWRLWX

REGIONAL WEATHER ROUNDUP
NATIONAL WEATHER SERVICE BALTIMORE MD/WASHINGTON DC
500 PM EST SAT JAN 20 2018

Note: "FAIR" indicates few or no clouds below 12,000 feet
with no significant weather and/or obstructions to visibility.
 TC=TEMPERATURE CELSIUS

 * =Non NWS site. Station does not report precipitation (e.g. rain,
    snow, etc.), thunder, or fog.

DCZ001-MDZ009-015-VAZ040>042-051-053>054-202300-
WASHINGTON METRO

CITY           SKY/WX    TMP DP  RH WIND       PRES   REMARKS
WASHINGTON NAT MOCLDY    61  31  32 SW9       30.01R
DULLES         MOCLDY    55  32  41 S7        30.00R
ANDREWS AFB    FAIR      57  30  35 W7        29.99R
FT BELVOIR     FAIR      58  31  36 S5          N/A
COLLEGE PARK*  FAIR      57  30  36 CALM      29.99R
LEESBURG*      FAIR      57  32  38 N3        30.00R
MANASSAS*      FAIR      59  33  37 SW3       30.00R
GAITHERSBURG*  FAIR      57  30  35 W6        30.00R

$$

MDZ006>007-011-014-202300-
BALTIMORE METRO

CITY           SKY/WX    TMP DP  RH WIND       PRES   REMARKS
BWI AIRPORT    MOCLDY    56  30  37 SW5       29.98R
MD SCIENCE CTR   N/A     60  31  33 MISG      29.98R
MARTIN STATE   PTCLDY    59  34  38 SW8       29.99R
ANNAPOLIS      FAIR      41  32  70 SE9       29.99R
FORT MEADE*    FAIR      48  32  53 SW5       30.01R

$$

MDZ012-015-019>023-202300-
MARYLAND EASTERN SHORE

CITY           SKY/WX    TMP DP  RH WIND       PRES   REMARKS
OCEAN CITY     FAIR      51  24  34 W8        30.02R
SALISBURY      FAIR      50  26  39 SW7       30.01R
BAY BRIDGE AP* FAIR      50  27  40 S6        30.00R
CAMBRIDGE*     CLEAR     46  28  49 SE8       30.02R
EASTON*        PTCLDY    52  25  35 SW5       30.04R

$$

MDZ017>025-202300-
SOUTHERN MARYLAND

CITY           SKY/WX    TMP DP  RH WIND       PRES   REMARKS
PATUXENT RIVER NOT AVBL
ST INIGOES     FAIR      49  28  44 CALM      30.01R
LEONARDTOWN*   FAIR      55  32  41 SW3       30.03R

$$

MDZ003>005-202300-
NORTH CENTRAL MARYLAND

CITY           SKY/WX    TMP DP  RH WIND       PRES   REMARKS
FREDERICK*     CLEAR     61  19  20 W15       30.02R
HAGERSTOWN APT FAIR      55  30  38 SW5       29.99R
WESTMINSTER*   FAIR      54  34  47 W3        29.98R

$$

MDZ501>502-202300-
WESTERN MARYLAND

CITY           SKY/WX    TMP DP  RH WIND       PRES   REMARKS
OAKLAND*       FAIR      41  30  65 W14G24    30.00R WCI  33
CUMBERLAND*    FAIR      54  32  43 W8        30.05R

$$

VAZ025>031-202300-
SHENANDOAH VALLEY

CITY           SKY/WX    TMP DP  RH WIND       PRES   REMARKS
WINCHESTER*    FAIR      52  27  37 NW5       30.01R
FRONT ROYAL*   FAIR      61  27  27 E3        29.98R
LURAY*         FAIR      57  32  38 S5        30.01R
NEW MARKET*    FAIR      57  28  33 W3        29.99R
STAUNTON*      FAIR      55  31  41 SW8       30.05R
WAYNESBORO*    FAIR      55  32  40 SW12G21   30.03S

$$

WVZ021-048>050-054>055-202300-
EASTERN WEST VIRGINIA PANHANDLE

CITY           SKY/WX    TMP DP  RH WIND       PRES   REMARKS
MARTINSBURG    FAIR      55  29  36 W13       29.99R
PETERSBURG*    FAIR      54  29  38 SW3       30.02R

$$

VAZ036>039-050-202300-
CENTRAL FOOTHILLS

CITY           SKY/WX    TMP DP  RH WIND       PRES   REMARKS
CHARLOTTESVILL FAIR      62  30  29 VRB6      30.01R
CULPEPER*      FAIR      60  28  30 SW6       30.01R
ORANGE*        FAIR      61  30  31 CALM      30.01R
GORDONSVILLE*  FAIR      60  32  34 SW6       30.01R
WARRENTON*     FAIR      60  26  26 S3        30.00R

$$

VAZ055>057-202300-
NORTH AND CENTRAL PIEDMONT

CITY           SKY/WX    TMP DP  RH WIND       PRES   REMARKS
FREDERICKSBRG* FAIR      61  35  36 SW5       30.00R
STAFFORD*      FAIR      61  32  32 SW3       30.05R

$$

NCZ024-NYZ072-PAZ021-071-VAZ022-071-202300-
OTHER REGIONAL OBSERVATIONS

CITY           SKY/WX    TMP DP  RH WIND       PRES   REMARKS
NEW YORK CITY  FAIR      48  26  42 VRB3      29.95R
PHILADELPHIA   MOCLDY    54  28  36 W9        29.98R
PITTSBURGH     MOCLDY    46  28  49 SW9       30.03R
ROANOKE        MOCLDY    58  37  45 W7        30.10R
RICHMOND       MOCLDY    58  34  40 SW8       30.04R
RALEIGH        FAIR      53  33  46 SW7       30.14R

$$

ANZ530>537-202300-
MARINE OBSERVATIONS

STATION/POSITION TIME  TEMP    WIND        PRES
                       AIR SEA DIR/SP/G
                 (UTC) (F)     (DEG/KT/KT) (MB)
THOMAS PT LIGHT  2200   41 33  160/  7/  8   N/A
BALT KEY BRIDGE  2136   58     200/  5/  7 1015.1R
COVE POINT       2136   38     170/  9/ 11 1016.7R
LEWISETTA        2136   45 33   90/  3/  3 1016.1R
SOLOMONS ISLAND  2136   54 35  250/  6/  7 1015.6R
PINEY POINT      2148          140/  4/  4   N/A

$$





USA.gov is the U.S. government's official web portal to all federal, state and local government web resources and services.